Coolangatta Observation History
Time Wind Speed Temp Pressure Rel. Hum Rain
07/01:00pm NE 9-11 kts 25.2°c 1014.1 hPa 64% 0.0mm
07/12:30pm NE 9-12 kts 26.4°c 1014.5 hPa 65% 0.0mm
07/12:00pm ENE 8-11 kts 25.8°c 1014.8 hPa 65% 0.0mm
07/11:30am NE 7-10 kts 24.3°c 1015.1 hPa 68% 0.0mm
07/11:00am ENE 10-12 kts 24.1°c 1015.5 hPa 70% 0.0mm
07/10:30am ESE 8-11 kts 25.4°c 1015.5 hPa 65% 0.0mm
07/10:00am SE 6-9 kts 24.2°c 1015.8 hPa 67% 0.0mm
07/09:30am ENE 3-11 kts 24.2°c 1015.8 hPa 68% 0.0mm
07/09:00am SSE 5-8 kts 24.5°c 1015.9 hPa 63% 0.2mm
07/08:30am S 5-8 kts 23.9°c 1015.6 hPa 66% 0.2mm
07/08:00am SSE 6-9 kts 23.4°c 1015.4 hPa 67% 0.2mm
07/07:30am SE 5-7 kts 22.7°c 1015.2 hPa 73% 0.2mm
07/07:00am CALM 0 kts 21.8°c 1014.9 hPa 76% 0.2mm
07/06:30am SSW 5-7 kts 21.4°c 1014.7 hPa 77% 0.2mm
07/06:00am SW 6-8 kts 21.0°c 1014.3 hPa 80% 0.2mm
07/05:30am SSW 5-7 kts 20.9°c 1013.9 hPa 80% 0.2mm
07/05:00am S 7-11 kts 20.7°c 1013.5 hPa 79% 0.2mm
07/04:30am S 6-8 kts 20.9°c 1013.2 hPa 79% 0.2mm
07/04:00am S 7-8 kts 20.5°c 1012.9 hPa 81% 0.2mm
07/03:30am S 4-6 kts 20.2°c 1012.8 hPa 81% 0.2mm
07/03:00am WSW 3-4 kts 20.9°c 1012.7 hPa 80% 0.2mm
07/02:30am SSW 6-8 kts 21.3°c 1012.5 hPa 76% 0.2mm
07/02:00am SSW 5-7 kts 21.5°c 1012.6 hPa 76% 0.2mm
07/01:30am SW 6-8 kts 21.8°c 1012.8 hPa 76% 0.2mm
07/01:00am SSW 6-8 kts 21.7°c 1012.8 hPa 75% 0.2mm
07/12:30am S 6-8 kts 21.7°c 1013.0 hPa 75% 0.2mm
07/12:00am SW 4-6 kts 21.6°c 1013.0 hPa 76% 0.2mm
Time Wind Speed Temp Pressure Rel. Hum Rain
06/11:30pm SW 5-6 kts 21.6°c 1013.0 hPa 78% 0.2mm
06/11:00pm S 5-7 kts 21.7°c 1013.1 hPa 77% 0.2mm
06/10:30pm S 5-7 kts 21.6°c 1013.1 hPa 76% 0.2mm
06/10:00pm S 3-5 kts 21.3°c 1012.9 hPa 79% 0.2mm
06/09:30pm SSE 5-6 kts 21.5°c 1012.9 hPa 82% 0.2mm
06/09:00pm SW 4-6 kts 21.8°c 1012.9 hPa 74% 0.2mm
06/08:30pm SSW 5-8 kts 22.2°c 1012.7 hPa 72% 0.2mm
06/08:00pm SW 6-8 kts 22.1°c 1012.3 hPa 74% 0.2mm
06/07:30pm S 5-6 kts 22.0°c 1011.7 hPa 71% 0.2mm
06/07:00pm SSE 8-13 kts 22.4°c 1011.2 hPa 69% 0.2mm
06/06:30pm SSE 6-10 kts 22.4°c 1011.0 hPa 68% 0.2mm
06/06:00pm SSE 9-11 kts 23.2°c 1010.6 hPa 65% 0.2mm
06/05:30pm SE 10-14 kts 23.8°c 1010.3 hPa 63% 0.2mm
06/05:00pm SE 12-16 kts 24.1°c 1009.9 hPa 63% 0.2mm
06/04:30pm SSE 10-15 kts 24.2°c 1009.6 hPa 62% 0.2mm
06/04:00pm SE 11-16 kts 24.6°c 1009.4 hPa 61% 0.2mm
06/03:30pm SSE 13-16 kts 24.8°c 1009.3 hPa 57% 0.2mm
06/03:00pm SE 15-20 kts 25.3°c 1009.4 hPa 56% 0.2mm
06/02:30pm SSE 13-17 kts 24.6°c 1009.6 hPa 61% 0.2mm
06/02:00pm SSE 14-20 kts 24.7°c 1009.6 hPa 59% 0.2mm
06/01:30pm SSE 13-18 kts 25.2°c 1009.5 hPa 60% 0.2mm
06/01:00pm SSE 13-18 kts 25.1°c 1009.6 hPa 59% 0.2mm
06/12:30pm SE 15-23 kts 25.8°c 1009.6 hPa 59% 0.2mm
06/12:00pm SSE 12-18 kts 26.8°c 1009.9 hPa 54% 0.2mm
06/11:30am SSE 13-20 kts 26.5°c 1009.9 hPa 56% 0.2mm
06/11:00am S 11-15 kts 25.3°c 1010.1 hPa 59% 0.2mm
06/10:30am SSE 12-19 kts 25.5°c 1010.3 hPa 63% 0.2mm
06/10:00am S 12-18 kts 24.2°c 1010.3 hPa 64% 0.2mm
06/09:30am S 13-18 kts 25.2°c 1010.2 hPa 62% 0.0mm
06/09:00am S 10-14 kts 25.0°c 1009.9 hPa 66% 3.0mm
06/08:30am SSW 8-12 kts 24.0°c 1009.9 hPa 72% 3.0mm
06/08:00am S 9-13 kts 22.5°c 1009.6 hPa 77% 3.0mm
06/07:30am S 11-14 kts 21.4°c 1009.3 hPa 82% 3.0mm
06/07:00am S 11-16 kts 21.7°c 1008.8 hPa 82% 3.0mm
06/06:30am SSW 10-14 kts 20.9°c 1008.3 hPa 85% 3.0mm
06/06:00am S 8-13 kts 20.8°c 1007.8 hPa 87% 3.0mm
06/05:30am S 7-9 kts 20.6°c 1007.4 hPa 86% 3.0mm
06/05:00am SSW 7-11 kts 20.9°c 1007.0 hPa 86% 3.0mm
06/04:30am S 6-8 kts 21.1°c 1006.8 hPa 86% 3.0mm
06/04:00am SSW 7-9 kts 21.1°c 1006.8 hPa 87% 3.0mm
06/03:30am SSW 7-10 kts 21.0°c 1006.7 hPa 90% 3.0mm
06/03:00am S 10-16 kts 21.2°c 1006.5 hPa 89% 3.0mm
06/02:30am SSW 8-11 kts 21.1°c 1006.6 hPa 90% 3.0mm
06/02:00am SW 8-11 kts 21.1°c 1006.8 hPa 92% 3.0mm
06/01:48am SSW 7-11 kts 21.1°c 1007.0 hPa 91% 2.8mm
06/01:30am SSW 10-14 kts 21.1°c 1007.0 hPa 91% 2.6mm
06/01:25am S 11-17 kts 21.2°c 1007.0 hPa 91% 1.6mm
06/01:00am S 11-15 kts 21.7°c 1007.0 hPa 88% 0.2mm
06/12:30am S 8-16 kts 22.9°c 1007.1 hPa 76% 0.0mm
06/12:00am SW 5-7 kts 22.8°c 1007.3 hPa 73% 0.0mm
Time Wind Speed Temp Pressure Rel. Hum Rain
05/11:30pm SSW 6-8 kts 22.9°c 1007.1 hPa 71% 0.0mm
05/11:00pm SSW 7-10 kts 22.8°c 1007.3 hPa 72% 0.0mm
05/10:30pm S 6-9 kts 22.7°c 1007.3 hPa 74% 0.0mm
05/10:00pm SSW 8-11 kts 23.1°c 1007.4 hPa 73% 0.0mm
05/09:30pm SSW 6-9 kts 22.9°c 1007.3 hPa 78% 0.0mm
05/09:00pm SW 3-5 kts 22.3°c 1007.2 hPa 89% 0.0mm
05/08:30pm SSW 3-5 kts 22.6°c 1007.0 hPa 87% 0.0mm
05/08:00pm SW 3-4 kts 22.8°c 1006.6 hPa 87% 0.0mm
05/07:30pm WSW 4-6 kts 22.6°c 1006.0 hPa 86% 0.0mm
05/07:00pm N 1-5 kts 23.5°c 1005.5 hPa 79% 0.0mm
05/06:30pm N 4-6 kts 25.0°c 1005.2 hPa 72% 0.0mm
05/06:00pm N 6-8 kts 25.6°c 1004.8 hPa 70% 0.0mm
05/05:30pm NNE 7-10 kts 25.9°c 1004.5 hPa 68% 0.0mm
05/05:00pm NNE 8-10 kts 26.4°c 1004.3 hPa 66% 0.0mm
05/04:30pm NE 10-12 kts 26.6°c 1004.1 hPa 65% 0.0mm
05/04:00pm NNE 10-12 kts 26.8°c 1004.1 hPa 65% 0.0mm
05/03:30pm NNE 10-13 kts 26.7°c 1003.9 hPa 63% 0.0mm
05/03:00pm NNE 11-14 kts 27.2°c 1003.9 hPa 62% 0.0mm
05/02:30pm N 13-15 kts 27.2°c 1004.1 hPa 62% 0.0mm
05/02:00pm NNE 13-17 kts 27.0°c 1004.3 hPa 63% 0.0mm
05/01:30pm NNE 13-16 kts 27.2°c 1004.6 hPa 61% 0.0mm
05/01:00pm N 13-16 kts 27.8°c 1004.8 hPa 59% 0.0mm
05/12:30pm N 13-16 kts 28.0°c 1005.3 hPa 58% 0.0mm
05/12:00pm N 12-15 kts 27.4°c 1005.7 hPa 55% 0.0mm
05/11:30am N 12-15 kts 27.5°c 1006.2 hPa 54% 0.0mm
05/11:00am NW 7-12 kts 26.8°c 1006.8 hPa 55% 0.0mm
05/10:30am NNW 9-13 kts 26.6°c 1007.3 hPa 54% 0.0mm
05/10:00am NW 10-14 kts 26.1°c 1007.8 hPa 54% 0.0mm
05/09:30am NW 10-15 kts 25.6°c 1008.0 hPa 55% 0.0mm
05/09:00am NW 9-13 kts 25.1°c 1008.3 hPa 60% 0.6mm
05/08:30am NW 8-12 kts 24.3°c 1008.3 hPa 61% 0.6mm
05/08:00am WNW 7-9 kts 23.5°c 1008.3 hPa 69% 0.6mm
05/07:30am W 5-8 kts 22.0°c 1008.2 hPa 75% 0.6mm
05/07:00am WSW 4-6 kts 19.5°c 1008.0 hPa 84% 0.6mm
05/06:30am SW 5-6 kts 17.9°c 1008.0 hPa 91% 0.6mm
05/06:00am SW 2-5 kts 16.8°c 1008.0 hPa 93% 0.6mm
05/05:30am CALM 0 kts 17.0°c 1007.9 hPa 92% 0.6mm
05/05:00am CALM 0 kts 16.8°c 1007.9 hPa 91% 0.6mm
05/04:30am CALM 0 kts 17.0°c 1007.9 hPa 91% 0.6mm
05/04:00am SW 2-4 kts 17.0°c 1007.9 hPa 91% 0.6mm
05/03:30am SW 1-3 kts 17.0°c 1008.0 hPa 90% 0.6mm
05/03:00am SW 1-3 kts 17.2°c 1008.3 hPa 91% 0.6mm
05/02:30am SW 1-3 kts 17.3°c 1008.6 hPa 91% 0.6mm
05/02:00am SW 1-4 kts 17.2°c 1008.9 hPa 89% 0.6mm
05/01:30am SW 1-5 kts 17.5°c 1009.2 hPa 90% 0.6mm
05/01:00am SSW 4-6 kts 17.6°c 1009.6 hPa 87% 0.6mm
05/12:30am SW 4-6 kts 17.5°c 1010.0 hPa 89% 0.6mm
05/12:00am SSW 3-5 kts 17.6°c 1010.2 hPa 89% 0.6mm